Probability
10 9 8 7 5 4 5 5 5 5 4 3 3 2 2 2 3 3 5 7 8 7 6 6 6 7 7 7 6 5 4 4 5 5 5 7 9 8 5 3 3 4 6
13 12 10 8 6 6 5 5 4 3 3 3 4 4 3 2 2 3 5 7 9 9 9 9 9 9 9 9 8 6 6 6 8 9 10 11 12 10 7 5 4 5 5
15 14 11 9 8 7 6 5 3 2 1 2 5 6 5 4 4 4 5 7 9 10 11 14 14 13 11 11 9 7 6 8 10 11 12 12 12 11 8 7 7 6 6
15 13 10 9 9 7 6 6 5 4 3 4 6 7 8 8 6 6 7 10 11 11 13 18 18 15 13 12 10 8 6 6 8 9 9 8 8 8 7 6 6 5 5
11 11 9 8 7 5 5 5 6 6 6 7 7 7 9 11 10 8 9 10 12 13 15 19 19 16 13 12 11 9 7 6 7 8 8 7 6 5 4 4 4 3 3
8 9 9 8 5 3 4 5 6 8 9 9 7 6 8 11 14 14 12 10 9 11 14 18 19 15 12 11 10 9 8 7 7 8 8 8 7 6 5 4 3 2 1
9 9 11 10 6 4 4 5 6 7 8 7 7 5 6 9 13 17 16 12 10 10 12 16 18 15 11 9 9 9 9 7 6 6 7 8 9 8 6 4 2 1 0
11 11 12 11 8 6 5 6 7 7 5 5 6 6 6 7 9 13 16 15 14 15 14 14 16 16 12 8 8 9 10 9 8 7 7 7 8 7 6 3 1 0 0
14 15 15 14 11 9 8 9 10 8 6 6 7 9 9 7 7 9 13 15 18 20 17 14 15 17 16 13 12 11 11 11 11 11 10 8 7 6 5 4 3 2 1
17 19 19 18 15 13 12 12 12 11 9 7 9 11 12 9 9 10 12 15 20 20 18 16 15 17 19 20 18 16 14 12 12 14 13 9 7 6 5 6 6 5 4
20 20 21 20 17 15 14 12 11 11 10 8 9 10 11 11 12 12 11 13 16 18 19 19 18 17 19 21 21 18 14 11 9 11 12 10 7 6 6 6 7 7 6
21 21 21 21 19 16 15 14 11 10 10 9 10 11 12 13 13 12 8 7 9 13 18 21 21 19 18 19 19 16 12 8 7 7 9 10 8 7 7 7 8 8 8
21 22 23 23 21 18 17 17 16 13 11 12 13 14 16 15 13 11 7 4 4 7 12 17 20 19 18 19 19 16 11 8 6 5 7 9 9 8 9 9 8 9 9
23 24 24 24 22 19 20 23 23 21 18 17 17 18 20 18 15 13 11 8 5 4 7 11 15 18 19 20 18 14 12 8 6 5 7 9 9 8 8 8 7 7 7
25 27 26 25 23 21 22 26 28 29 27 24 22 22 22 20 19 18 17 15 10 7 7 10 14 16 16 15 13 13 13 10 6 6 6 8 8 6 4 4 4 3 3
29 29 28 26 25 25 26 27 28 30 30 28 26 23 21 19 18 18 18 17 15 13 11 13 15 17 16 12 11 15 17 12 8 6 5 5 6 5 3 1 1 0 1
30 28 28 28 29 29 29 28 26 26 27 27 26 25 21 18 17 17 17 17 18 17 16 16 18 21 22 19 19 22 19 14 9 6 3 3 5 6 4 1 0 0 0
28 27 28 30 32 31 31 29 26 25 25 25 25 24 21 19 19 19 19 19 19 19 19 19 21 25 26 26 28 26 21 15 11 7 4 4 6 6 5 2 0 0 0
27 27 28 28 29 28 27 26 26 26 26 25 24 21 20 20 21 22 21 21 20 21 21 21 21 22 24 27 29 27 22 18 14 11 7 6 5 5 3 1 0 0 0
26 26 26 25 24 22 21 21 24 26 26 24 21 20 18 18 18 18 19 19 20 21 22 21 20 19 20 23 24 23 21 20 17 13 11 8 5 4 3 1 0 0 0
26 26 25 23 20 17 14 16 20 25 26 23 21 20 18 14 13 13 13 15 17 20 21 21 20 19 19 19 18 16 17 19 18 16 14 11 8 6 5 4 2 0 0
31 29 26 23 19 13 9 9 15 22 25 24 24 24 20 14 12 13 12 12 13 15 18 20 20 18 18 18 16 13 13 15 18 18 15 12 10 9 9 7 4 2 0
36 33 29 25 21 14 7 5 10 18 22 24 25 26 22 16 15 15 14 11 10 11 13 15 16 17 18 20 19 17 15 15 16 17 16 13 11 12 12 9 6 3 1
38 35 31 27 23 16 9 5 7 16 21 22 23 24 22 19 16 15 14 13 12 12 11 10 12 14 16 17 17 18 18 17 16 17 17 16 13 12 10 8 6 4 1
37 35 33 29 25 18 11 5 8 18 24 22 21 21 20 18 15 14 14 14 15 15 12 9 9 10 10 11 11 13 16 16 15 16 18 18 15 12 9 8 7 5 2
35 34 32 30 27 21 13 6 9 21 27 23 21 21 19 16 14 13 14 15 16 16 14 11 9 7 7 7 7 9 13 15 14 14 16 19 17 13 10 9 9 5 2
Wind_Speed
3 3 2 2 2 2 2 2 2 2 2 2 1 1 1 2 2 2 4 10 9 8 8 7 7 7 6 5 5 6 5 6 6 7 8 8 8 8 8 8 7 7 6
3 3 2 2 2 2 2 1 1 1 2 1 1 1 1 1 3 2 3 6 9 9 8 7 7 6 6 5 5 5 5 6 6 6 6 7 8 8 8 7 7 7 7
3 2 2 2 2 2 2 1 1 1 1 1 2 2 2 1 2 3 3 3 5 7 8 7 7 6 5 5 4 4 4 5 5 6 6 7 7 7 7 7 7 7 6
2 1 2 2 1 1 1 1 1 0 0 0 0 1 2 2 2 2 3 3 3 4 6 8 7 6 5 5 5 4 4 4 5 6 6 7 8 8 8 8 7 6 6
2 1 1 2 1 1 1 1 1 0 0 0 1 1 1 1 1 1 3 3 4 4 4 6 8 7 6 5 5 5 5 4 5 6 7 7 8 8 8 8 8 7 7
2 1 1 1 1 1 1 2 1 1 1 1 1 0 1 1 1 1 1 2 3 3 4 5 4 5 6 6 5 5 5 5 5 5 7 7 8 9 9 9 8 8 8
1 1 2 1 1 1 1 1 1 1 1 0 1 1 1 2 2 2 1 1 1 1 2 4 4 3 3 6 5 5 5 5 5 5 5 6 6 7 8 9 9 8 8
1 1 1 1 1 1 1 1 1 1 1 1 1 1 1 0 1 2 1 2 1 1 2 3 3 3 3 3 4 6 6 5 4 4 4 5 6 6 7 8 8 8 8
1 1 1 1 1 0 1 1 1 1 1 2 1 0 0 1 1 1 1 2 2 1 1 2 3 3 3 3 3 4 5 4 4 4 4 4 5 5 6 7 7 8 7
1 1 1 1 1 1 0 1 0 1 2 2 1 1 1 0 1 1 1 1 2 2 1 1 1 2 2 2 3 4 6 5 5 4 4 4 4 4 4 7 7 7 6
1 1 1 1 1 1 0 1 1 2 2 2 2 1 1 1 1 1 1 1 2 1 1 1 1 1 2 3 2 4 5 5 5 5 4 4 4 4 4 5 5 6 6
1 1 1 1 1 1 1 1 1 2 2 2 2 2 1 1 1 1 1 2 2 1 1 1 1 1 2 3 3 5 6 5 4 4 4 4 4 4 4 4 5 5 5
1 1 0 0 0 1 1 1 1 1 2 2 2 2 2 2 1 1 1 2 2 2 1 1 2 2 2 2 3 6 6 6 5 5 4 4 4 4 4 4 5 5 5
1 2 1 0 0 1 1 1 1 2 1 2 3 2 2 2 1 1 1 2 2 2 2 2 0 1 1 3 4 6 5 6 6 5 5 5 5 4 4 4 4 4 5
1 2 1 1 1 1 1 1 1 2 1 2 2 2 2 2 2 1 1 1 2 3 3 2 1 0 1 2 5 3 3 6 7 7 7 6 6 6 5 5 5 5 5
2 2 2 2 1 1 1 1 1 1 1 1 2 1 1 2 2 2 2 2 1 2 3 2 1 1 1 1 4 2 2 7 8 7 8 8 8 7 7 6 6 5 5
1 1 1 2 2 1 1 1 2 2 2 2 2 1 1 2 2 3 2 2 2 1 3 3 2 1 1 1 2 2 3 4 4 8 9 9 9 9 8 7 7 6 6
0 1 1 1 2 2 1 1 2 2 2 2 2 2 2 2 2 2 3 3 2 2 2 4 3 2 2 2 2 3 3 3 3 7 9 9 9 9 9 9 8 7 7
1 1 1 1 2 2 2 1 2 2 2 2 2 2 3 2 3 2 2 3 3 4 2 3 4 2 2 2 2 3 3 2 3 4 7 9 9 10 10 10 9 9 8
1 1 1 1 1 1 2 2 2 1 2 2 2 2 2 2 3 3 3 3 3 3 3 3 3 3 2 2 1 2 2 2 3 3 3 4 7 9 10 10 10 10 9
2 1 1 1 1 1 2 3 2 2 2 2 2 2 2 2 3 2 3 3 3 3 3 3 3 3 2 2 2 2 3 3 3 2 2 2 3 4 5 8 10 11 10
1 1 1 1 1 2 4 4 2 2 2 2 2 2 2 1 2 3 3 4 4 4 4 3 3 3 3 2 3 3 3 3 3 2 1 3 2 3 3 4 7 10 11
1 1 0 1 1 2 3 3 3 2 2 2 2 3 3 3 3 3 3 4 5 6 5 4 4 4 4 3 3 4 4 4 5 3 1 3 2 2 3 3 7 9 9
0 0 0 0 0 1 3 3 3 2 2 2 2 2 2 2 4 4 4 3 3 3 4 3 3 5 4 3 3 3 4 5 5 3 2 3 2 2 3 2 5 8 9
1 1 1 1 0 1 2 2 2 3 2 2 2 2 2 1 3 4 3 3 4 4 4 5 5 5 5 6 4 2 3 3 4 3 2 2 2 2 2 2 3 6 7
1 1 1 1 1 1 2 2 3 3 2 2 1 1 1 2 2 3 3 3 4 5 5 5 4 4 5 5 5 4 3 4 3 3 2 1 2 1 2 2 1 2 3
Wind_Direction
69 70 71 64 75 96 116 130 138 143 148 169 191 116 96 106 108 121 138 161 165 166 171 176 182 186 193 200 209 211 213 209 202 198 199 202 205 207 209 208 204 201 201
71 75 73 66 63 82 90 96 110 140 135 149 148 128 131 116 127 140 145 165 172 175 177 179 182 185 190 197 203 207 211 200 196 195 198 203 206 208 208 209 210 209 207
70 77 69 71 61 77 92 104 57 100 136 160 162 167 146 152 155 150 155 163 168 179 179 183 184 184 189 194 197 206 206 205 196 198 203 204 205 205 205 207 210 213 211
79 65 68 72 55 63 89 112 105 64 69 149 196 180 147 159 198 175 158 160 156 165 181 187 180 181 188 191 191 201 206 204 201 204 209 211 210 210 210 210 212 213 213
84 71 76 68 71 78 49 65 95 57 331 122 229 195 168 163 189 183 159 165 157 161 168 176 182 185 188 188 189 193 198 197 203 214 220 219 215 215 215 215 215 214 216
77 61 91 78 56 76 45 41 38 329 276 284 293 52 173 160 186 175 175 149 151 164 156 157 176 189 187 185 185 193 198 201 207 220 226 224 219 217 216 216 217 216 218
67 64 43 50 63 75 54 43 12 317 279 315 341 337 237 193 192 162 181 139 119 143 147 154 164 163 174 185 190 193 201 206 210 222 229 224 219 219 215 217 220 219 218
74 83 90 65 63 78 40 335 314 310 318 342 298 314 309 276 286 176 161 154 160 175 176 159 159 156 166 167 177 195 202 207 209 216 224 220 214 215 216 216 217 217 219
104 66 56 56 30 114 166 245 286 293 293 292 298 336 340 321 304 207 218 173 175 184 183 171 160 161 168 160 160 186 195 204 211 214 215 213 213 215 216 214 215 215 217
110 120 106 69 338 327 102 280 179 298 289 294 293 274 273 72 266 305 292 232 210 195 187 170 173 167 152 141 128 149 183 195 208 213 212 210 208 214 212 203 207 212 215
145 122 142 156 219 267 205 302 350 315 316 326 322 308 315 302 264 248 291 310 289 237 186 190 193 167 154 144 155 140 165 181 194 209 214 215 213 215 210 203 212 215 220
148 147 171 185 218 248 246 256 270 291 300 309 314 313 316 314 306 301 300 297 295 279 207 186 184 178 167 151 151 143 153 163 176 191 204 210 210 211 213 213 218 217 223
100 83 68 161 251 258 254 261 258 275 284 297 299 302 311 296 290 297 297 295 302 299 284 203 188 175 171 149 146 146 159 166 172 179 191 198 205 210 218 220 224 225 229
53 65 39 59 331 296 299 302 288 268 270 287 293 305 305 305 318 283 260 280 297 294 290 282 195 153 164 149 153 162 164 173 179 188 197 205 207 209 217 222 222 224 231
47 56 16 8 358 339 335 326 303 304 329 290 299 299 283 299 295 284 276 264 262 288 290 287 298 181 126 138 153 168 159 183 190 197 202 205 206 207 213 213 218 222 224
31 28 10 8 12 3 342 316 305 298 285 282 267 289 322 307 316 303 284 283 272 267 283 288 276 241 197 214 166 178 185 185 200 206 206 208 208 208 209 212 218 220 223
13 354 347 343 337 345 343 327 308 329 330 315 308 320 317 320 328 320 319 314 309 297 283 293 290 280 258 241 177 214 200 192 197 210 211 210 209 208 207 211 218 222 224
302 320 334 331 322 345 330 323 320 349 339 343 345 349 337 326 333 328 331 327 317 299 282 289 289 288 260 241 210 227 233 223 211 210 209 209 205 207 208 212 218 221 223
295 308 312 309 328 337 332 328 327 333 337 339 343 341 332 339 334 325 324 328 323 319 310 298 296 286 271 259 234 242 252 242 240 217 203 207 208 209 211 215 216 218 218
252 276 310 329 327 330 337 340 325 316 320 326 328 324 337 341 338 324 320 329 320 312 309 303 297 295 293 292 280 269 278 266 266 257 220 205 209 213 216 218 216 216 215
241 260 304 313 311 317 357 353 316 315 335 333 324 326 340 348 351 324 319 326 324 315 311 307 305 311 312 319 307 293 286 280 265 253 231 226 210 213 216 223 220 217 216
258 288 282 308 355 350 4 11 3 338 345 333 322 315 297 326 335 301 288 293 289 288 293 294 299 297 296 300 300 295 290 289 284 258 237 248 221 224 219 211 202 207 214
225 284 323 58 71 9 1 2 344 309 321 314 309 307 308 333 347 328 294 280 277 271 263 268 280 285 288 291 289 293 296 289 276 270 263 264 242 242 240 230 201 206 210
160 173 227 237 228 351 348 336 323 278 276 287 298 312 326 345 343 331 319 315 302 293 274 259 266 279 290 291 270 270 279 290 284 271 237 249 246 245 258 230 209 207 209
230 229 230 224 239 324 314 306 304 274 272 276 283 312 320 319 336 335 317 309 308 304 297 290 269 267 277 285 282 283 281 284 288 281 258 248 255 259 246 233 214 208 212
237 248 256 231 236 256 283 293 286 272 277 280 272 245 36 345 323 323 310 302 294 297 308 306 299 279 265 263 260 248 263 272 276 287 281 254 265 267 273 239 199 188 210